KE6AFE Weather Reports


Display with metric or nautical units.
time (UTC)temp
F
wind
direction
speed
MPH
gust
MPH
rain 1hr
in
rain 24hr
in
rain mn
in
humidity
%
barometer
mb
20260506153421 61 2 0.0 0.0 0.00 0.00 0.00 69 1020.4
20260506152411 61 3 0.0 0.0 0.00 0.00 0.00 69 1020.4
20260506151401 60 2 0.0 0.0 0.00 0.00 0.00 69 1020.4
20260506150351 60 2 0.0 0.0 0.00 0.00 0.00 70 1020.4
20260506145341 59 1 0.0 0.0 0.00 0.00 0.00 71 1020.5
20260506144331 58 2 0.0 0.0 0.00 0.00 0.00 73 1020.5
20260506143321 57 2 0.0 0.0 0.00 0.00 0.00 76 1020.5
20260506142311 56 3 0.0 0.0 0.00 0.00 0.00 76 1020.5
20260506141301 56 2 0.0 0.0 0.00 0.00 0.00 76 1020.4
20260506140251 55 3 0.0 0.0 0.00 0.00 0.00 76 1020.3
20260506135241 55 2 0.0 0.0 0.00 0.00 0.00 76 1020.2
20260506134231 55 2 0.0 0.0 0.00 0.00 0.00 76 1020.0
20260506133221 55 2 0.0 0.0 0.00 0.00 0.00 76 1019.9
20260506132210 55 3 0.0 0.0 0.00 0.00 0.00 76 1019.8
20260506131200 55 2 0.0 0.0 0.00 0.00 0.00 76 1019.7
20260506130151 55 2 0.0 0.0 0.00 0.00 0.00 76 1019.6
20260506125141 55 2 0.0 0.0 0.00 0.00 0.00 76 1019.6
20260506124130 55 2 0.0 0.0 0.00 0.00 0.00 77 1019.5
20260506123121 55 2 0.0 0.0 0.00 0.00 0.00 76 1019.5
20260506122110 55 1 0.0 0.0 0.00 0.00 0.00 76 1019.4
20260506121100 55 2 0.0 0.0 0.00 0.00 0.00 76 1019.3
20260506120050 55 2 0.0 0.0 0.00 0.00 0.00 76 1019.2
20260506115040 55 3 0.0 0.0 0.00 0.00 0.00 77 1019.1
20260506114030 54 3 0.0 0.0 0.00 0.00 0.00 76 1019.2
20260506113020 54 2 0.0 0.0 0.00 0.00 0.00 77 1019.2
20260506112010 54 5 0.0 0.0 0.00 0.00 0.00 76 1019.2
20260506111000 54 7 0.0 0.0 0.00 0.00 0.00 77 1019.1
20260506105950 54 6 0.0 0.0 0.00 0.00 0.00 77 1019.1
20260506104940 54 0 0.0 0.0 0.00 0.00 0.00 77 1019.1
20260506103930 54 0 0.0 0.0 0.00 0.00 0.00 76 1019.0
20260506102920 54 0 0.0 0.0 0.00 0.00 0.00 76 1019.1
20260506101910 54 0 0.0 0.0 0.00 0.00 0.00 76 1019.1
20260506100900 54 0 0.0 0.0 0.00 0.00 0.00 75 1019.1
20260506095850 54 0 0.0 0.0 0.00 0.00 0.00 75 1019.1
20260506094840 54 0 0.0 0.0 0.00 0.00 0.00 75 1019.1
20260506093830 54 0 0.0 0.0 0.00 0.00 0.00 74 1019.2
20260506092820 55 0 0.0 0.0 0.00 0.00 0.00 74 1019.3
20260506091810 55 0 0.0 0.0 0.00 0.00 0.00 73 1019.2
20260506090800 55 0 0.0 0.0 0.00 0.00 0.00 73 1019.1
20260506085750 55 0 0.0 0.0 0.00 0.00 0.00 73 1019.1
20260506084740 56 0 0.0 0.0 0.00 0.00 0.00 73 1019.1
20260506083730 56 0 0.0 0.0 0.00 0.00 0.00 72 1019.1
20260506082721 56 0 0.0 0.0 0.00 0.00 0.00 72 1019.1
20260506081710 57 0 0.0 0.0 0.00 0.00 0.00 72 1019.0
20260506080700 57 0 0.0 0.0 0.00 0.00 0.00 72 1019.1
20260506072620 58 0 0.0 0.0 0.00 0.00 0.00 69 1018.8
20260506071610 58 0 0.0 0.0 0.00 0.00 0.00 69 1018.8
20260506070600 58 0 0.0 0.0 0.00 0.00 0.00 69 1018.7
20260506061510 59 0 0.0 0.0 0.00 0.00 0.00 68 1018.4
20260506060500 59 0 0.0 0.0 0.00 0.00 0.00 68 1018.4
20260506051410 60 0 0.0 0.0 0.00 0.00 0.00 67 1018.2
20260506050400 60 0 0.0 0.0 0.00 0.00 0.00 67 1018.1
20260506044340 60 0 0.0 0.0 0.00 0.00 0.00 67 1017.9
20260506043330 60 0 0.0 0.0 0.00 0.00 0.00 67 1017.8
20260506042320 60 0 0.0 0.0 0.00 0.00 0.00 67 1017.8
20260506041310 60 0 0.0 0.0 0.00 0.00 0.00 67 1017.7
20260506040300 60 0 0.0 0.0 0.00 0.00 0.00 67 1017.5
20260506035250 61 0 0.0 0.0 0.00 0.00 0.00 66 1017.4
20260506034240 61 0 0.0 0.0 0.00 0.00 0.00 66 1017.4
20260506033230 61 0 0.0 0.0 0.00 0.00 0.00 66 1017.2
20260506032220 61 0 0.0 0.0 0.00 0.00 0.00 66 1017.0
20260506031210 61 0 0.0 0.0 0.00 0.00 0.00 66 1016.9
20260506030200 61 0 0.0 0.0 0.00 0.00 0.00 66 1016.7
20260506025150 61 0 0.0 0.0 0.00 0.00 0.00 65 1016.7
20260506024140 61 0 0.0 0.0 0.00 0.00 0.00 65 1016.7
20260506023130 62 0 0.0 0.0 0.00 0.00 0.00 65 1016.7
20260506022120 62 0 0.0 0.0 0.00 0.00 0.00 65 1016.7
20260506021110 62 0 0.0 0.0 0.00 0.00 0.00 65 1016.7
20260506020100 62 0 0.0 0.0 0.00 0.00 0.00 64 1016.7
20260506015050 62 0 0.0 0.0 0.00 0.00 0.00 64 1016.6
20260506014040 62 0 0.0 0.0 0.00 0.00 0.00 64 1016.5
20260506013030 63 0 0.0 0.0 0.00 0.00 0.00 63 1016.4
20260506012020 63 0 0.0 0.0 0.00 0.00 0.00 63 1016.4
20260506011010 63 0 0.0 0.0 0.00 0.00 0.00 62 1016.4
20260506010000 63 0 0.0 0.0 0.00 0.00 0.00 62 1016.4
20260506004950 63 2 0.0 0.0 0.00 0.00 0.00 61 1016.3
20260506003940 64 2 0.0 0.0 0.00 0.00 0.00 61 1016.3
20260506002930 64 2 0.0 0.0 0.00 0.00 0.00 60 1016.2
20260506001922 64 1 0.0 0.0 0.00 0.00 0.00 59 1016.2
20260506001920 64 2 0.0 0.0 0.00 0.00 0.00 59 1016.1
20260506000910 64 2 0.0 0.0 0.00 0.00 0.00 60 1016.0
20260505235900 64 1 0.0 0.0 0.00 0.00 0.00 61 1016.0
20260505234850 64 2 0.0 0.0 0.00 0.00 0.00 61 1016.1
20260505233840 64 2 0.0 0.0 0.00 0.00 0.00 61 1016.1
20260505232830 64 1 0.0 0.0 0.00 0.00 0.00 61 1016.0
20260505231820 63 2 0.0 0.0 0.00 0.00 0.00 62 1016.0
20260505230810 63 1 0.0 0.0 0.00 0.00 0.00 63 1016.1
20260505225800 63 1 0.0 0.0 0.00 0.00 0.00 64 1016.2
20260505224750 63 1 0.0 0.0 0.00 0.00 0.00 64 1016.3
20260505223740 63 1 0.0 0.0 0.00 0.00 0.00 64 1016.4
20260505222730 64 2 0.0 0.0 0.00 0.00 0.00 64 1016.4
20260505221720 64 1 0.0 0.0 0.00 0.00 0.00 63 1016.5
20260505220710 64 1 0.0 0.0 0.00 0.00 0.00 65 1016.5
20260505215700 63 1 0.0 0.0 0.00 0.00 0.00 64 1016.5
20260505214650 63 1 0.0 0.0 0.00 0.00 0.00 64 1016.6
20260505213640 63 1 0.0 0.0 0.00 0.00 0.00 63 1016.7
20260505212630 63 1 0.0 0.0 0.00 0.00 0.00 64 1016.8
20260505211620 63 2 0.0 0.0 0.00 0.00 0.00 64 1016.8
20260505210610 63 1 0.0 0.0 0.00 0.00 0.00 65 1016.7
20260505205600 62 1 0.0 0.0 0.00 0.00 0.00 65 1016.7
20260505204550 62 2 0.0 0.0 0.00 0.00 0.00 65 1016.7
20260505203540 62 2 0.0 0.0 0.00 0.00 0.00 65 1016.8
20260505202530 63 2 0.0 0.0 0.00 0.00 0.00 64 1016.8
20260505201520 63 2 0.0 0.0 0.00 0.00 0.00 64 1016.8
20260505200510 63 2 0.0 0.0 0.00 0.00 0.00 63 1016.9
20260505195500 63 1 0.0 0.0 0.00 0.00 0.00 64 1016.9
20260505194450 62 2 0.0 0.0 0.00 0.00 0.00 64 1016.9
20260505193440 62 2 0.0 0.0 0.00 0.00 0.00 65 1017.0
20260505192430 62 1 0.0 0.0 0.00 0.00 0.00 64 1017.0
20260505191420 62 2 0.0 0.0 0.00 0.00 0.00 64 1016.9
20260505190410 63 1 0.0 0.0 0.00 0.00 0.00 64 1016.9
20260505185400 63 2 0.0 0.0 0.00 0.00 0.00 64 1016.8
20260505184350 63 1 0.0 0.0 0.00 0.00 0.00 64 1016.9
20260505183340 63 2 0.0 0.0 0.00 0.00 0.00 63 1016.9
20260505182330 63 1 0.0 0.0 0.00 0.00 0.00 62 1016.8
20260505181320 63 1 0.0 0.0 0.00 0.00 0.00 62 1016.7
20260505180310 63 1 0.0 0.0 0.00 0.00 0.00 62 1016.7
20260505175300 62 2 0.0 0.0 0.00 0.00 0.00 61 1016.5
20260505174250 62 2 0.0 0.0 0.00 0.00 0.00 61 1016.4
20260505173240 61 1 0.0 0.0 0.00 0.00 0.00 62 1016.4
20260505172230 61 1 0.0 0.0 0.00 0.00 0.00 61 1016.4
20260505171220 61 1 0.0 0.0 0.00 0.00 0.00 62 1016.5
20260505170210 60 2 0.0 0.0 0.00 0.00 0.00 62 1016.4
20260505165200 59 2 0.0 0.0 0.00 0.00 0.00 63 1016.2
20260505164150 59 1 0.0 0.0 0.00 0.00 0.00 65 1016.1
20260505163140 58 2 0.0 0.0 0.00 0.00 0.00 66 1016.0
20260505162130 57 2 0.0 0.0 0.00 0.00 0.00 67 1016.1
20260505161120 57 2 0.0 0.0 0.00 0.00 0.00 67 1016.0
20260505160110 56 2 0.0 0.0 0.00 0.00 0.00 67 1015.9